[[[{"header":{"parameterUnit":"kt","parameterCategory":2,"dx":1,"dy":1,"la1":30.253999710083008,"la2":30.299108505249023,"lo1":-89.0895004272461,"lo2":-89.04439544677734,"nx":28,"ny":28,"refTime":"2022-10-18T21:00:00:Z","depth":0,"parameterNumber":1,"parameterNumberName":"U-component_of_WINDS"},"data":[1.1757,1.1735,1.1721,1.169,1.1672,1.1648,1.1635,1.1616,1.1597,1.1567,1.1547,1.153,1.1505,1.1477,1.1455,1.1447,1.1438,1.1442,1.1433,1.143,1.1428,1.1427,1.1431,1.1441,1.1441,1.1438,1.1438,1.1438,1.1759,1.1741,1.172,1.169,1.1672,1.166,1.1635,1.1621,1.1599,1.1576,1.1555,1.1527,1.1502,1.1475,1.1448,1.1438,1.143,1.1432,1.1432,1.1428,1.1424,1.1429,1.1439,1.1439,1.1439,1.1439,1.1439,1.1439,1.1759,1.1747,1.172,1.1696,1.1677,1.1657,1.1642,1.1621,1.16,1.157,1.1556,1.1531,1.1504,1.1464,1.1446,1.1426,1.1421,1.1418,1.1417,1.1416,1.1418,1.1425,1.1421,1.1421,1.1421,1.1421,1.1421,0,1.1755,1.1743,1.1721,1.1696,1.1678,1.1656,1.1633,1.1623,1.1592,1.1576,1.1551,1.1533,1.1499,1.1473,1.1444,1.1426,1.141,1.1407,1.1404,1.141,1.1421,1.1415,1.141,1.1406,1.1406,1.1406,1.1406,1.1406,1.1754,1.174,1.1704,1.1691,1.1674,1.1653,1.1637,1.161,1.1594,1.1562,1.1551,1.1525,1.1502,1.1463,1.1437,1.1411,1.1402,1.1403,1.1398,1.1406,1.1402,1.1403,1.1401,1.1404,1.1404,1.1404,1.1404,0,1.1755,1.173,1.1703,1.1668,1.1658,1.1645,1.1615,1.16,1.158,1.1557,1.1551,1.1518,1.1493,1.1466,1.1431,1.1418,1.1397,1.1389,1.1407,1.1403,1.1401,1.1402,1.1398,1.1396,1.1385,1.1386,1.1386,0,1.1744,1.1726,1.169,1.1675,1.1656,1.1629,1.161,1.159,1.1565,1.1547,1.1525,1.1508,1.1475,1.1455,1.1434,1.1412,1.1405,1.1394,1.1388,1.1395,1.1397,1.1385,1.1384,1.1376,1.1377,1.1377,1.1377,0,1.1747,1.1706,1.1684,1.167,1.1629,1.1619,1.1601,1.1572,1.1556,1.1531,1.152,1.1492,1.1477,1.1456,1.143,1.1428,1.1402,1.1393,1.139,1.139,1.1384,1.1384,1.1389,1.1377,1.1377,1.1377,1.1377,0,1.1733,1.1709,1.1679,1.1644,1.1634,1.1619,1.159,1.157,1.1541,1.1527,1.1507,1.1487,1.1465,1.1459,1.1428,1.1433,1.1419,1.1405,1.1405,1.14,1.1393,1.1399,1.1407,1.1406,1.1398,1.1398,1.1398,0,1.1745,1.1707,1.1683,1.1655,1.1634,1.161,1.1592,1.1567,1.1546,1.1525,1.1503,1.1478,1.1467,1.1455,1.1444,1.1419,1.1413,1.1419,1.1388,1.1388,1.1397,1.1404,1.1411,1.1408,1.14,1.14,1.1399,0,1.175,1.1699,1.1696,1.1679,1.164,1.1621,1.1601,1.157,1.1558,1.1531,1.1513,1.1477,1.1468,1.1448,1.1428,1.1418,1.1417,1.1408,1.1407,1.1411,1.1398,1.1406,1.1405,1.1406,1.1406,1.1405,1.1401,0,1.1736,1.1712,1.1702,1.1664,1.1645,1.1625,1.1594,1.1579,1.1562,1.1541,1.1513,1.1483,1.145,1.1442,1.1425,1.1409,1.1407,1.1396,1.1387,1.1392,1.1389,1.1388,1.1393,1.1393,1.1392,1.1392,0,0,1.1753,1.1718,1.1691,1.1669,1.1651,1.1625,1.1607,1.1586,1.1544,1.1533,1.1528,1.1472,1.1447,1.1416,1.1416,1.1402,1.1396,1.1395,1.139,1.139,1.1389,1.1387,1.1387,1.1391,1.1391,1.1391,1.1391,0,1.174,1.1717,1.1698,1.1676,1.1642,1.1619,1.1615,1.1575,1.156,1.1532,1.151,1.1489,1.1444,1.1421,1.1403,1.1399,1.1382,1.1391,1.1399,1.1387,1.1387,1.1388,1.1386,1.1386,1.139,1.139,1.139,0,1.174,1.1711,1.1699,1.1656,1.1633,1.161,1.1594,1.157,1.1553,1.1523,1.1495,1.1474,1.1439,1.1414,1.1401,1.1396,1.137,1.1372,1.1374,1.1371,1.1358,1.1358,1.1359,1.1352,1.1352,1.1352,0,0,1.1733,1.1711,1.167,1.1651,1.1638,1.1604,1.1588,1.1569,1.1539,1.1527,1.1499,1.147,1.1444,1.1427,1.14,1.1376,1.1367,1.1369,1.137,1.1372,1.137,1.1357,1.1358,1.1352,1.1352,1.1352,0,0,1.173,1.1682,1.167,1.1644,1.1617,1.1574,1.1564,1.1548,1.1521,1.1519,1.1485,1.1476,1.1451,1.143,1.1434,1.1396,1.1387,1.1386,1.141,1.1412,1.1414,1.1419,1.1411,0,0,0,0,0,1.1701,1.1688,1.1678,1.1669,1.1613,1.158,1.1573,1.1545,1.154,1.1533,1.1506,1.1489,1.1426,1.1429,1.142,1.1415,1.1352,1.1352,1.1352,1.1378,1.138,1.1382,0,0,0,0,0,0,1.1697,1.1686,1.1678,1.1636,1.1623,1.1581,1.1566,1.1558,1.154,1.1538,1.1495,1.1487,1.1462,1.1431,1.1424,1.142,1.1414,1.1352,1.1352,1.1352,1.1379,1.1381,1.1382,0,0,0,0,0,1.1693,1.1684,1.1603,1.1636,1.1625,1.1585,1.1566,1.1559,1.1545,1.1503,1.1496,1.1525,1.1463,1.1455,1.1427,1.1424,1.1419,1.1416,1.1352,1.1352,1.1352,1.138,0,0,0,0,0,0,1.1691,1.1678,1.16,1.1596,1.1638,1.1587,1.1578,1.1561,1.1511,1.1504,1.1533,1.1531,1.1463,1.1457,1.145,1.1427,1.1423,1.142,1.1418,1.1352,1.1352,1.1352,0,0,0,0,0,0,1.1682,1.1674,1.1598,1.1602,1.1598,1.1588,1.158,1.1552,1.1511,1.1543,1.154,1.1532,1.1472,1.1458,1.1453,1.141,1.1426,1.1423,1.1422,1.142,1.1352,1.1352,0,0,0,0,0,0,1.1678,1.1671,1.1603,1.16,1.1596,1.1544,1.1563,1.1507,1.1516,1.1546,1.1516,1.1516,1.1474,1.1469,1.1455,1.1414,1.1411,1.1426,1.1424,1.1423,1.1422,0,0,0,0,0,0,0,1.1675,1.1729,1.1626,1.1598,1.1595,1.1555,1.1553,1.1552,1.1516,1.1516,1.1516,1.1516,1.1441,1.1438,1.1435,1.1418,0,0,1.1426,1.1425,0,0,0,0,0,0,0,0,1.1731,1.173,1.1626,1.1625,1.1625,1.1554,1.1553,1.1552,1.1516,1.1516,1.1516,1.1516,1.144,1.1438,1.1436,0,0,0,0,0,0,0,0,0,0,0,0,0,0,0,1.1626,1.1625,0,1.1554,1.1554,1.1553,1.1516,1.1516,1.1516,1.1516,1.144,1.1438,1.1436,0,0,0,0,0,0,0,0,0,0,0,0,0,0,0,0,0,0,0,0,0,0,0,0,0,0,0,0,0,0,0,0,0,0,0,0,0,0,0,0,0,0,0,0,0,0,0,0,0,0,0,0,0,0,0,0,0,0,0,0,0,0,0,0,0,0,0,0,0]}],[{"header":{"parameterUnit":"kt","parameterCategory":2,"dx":1,"dy":1,"la1":30.253999710083008,"la2":30.299108505249023,"lo1":-89.0895004272461,"lo2":-89.04439544677734,"nx":28,"ny":28,"refTime":"2022-10-18T21:00:00:Z","depth":0,"parameterNumber":2,"parameterNumberName":"V-component_of_WINDS"},"data":[-7.7222,-7.7397,-7.743,-7.7644,-7.771,-7.7862,-7.7926,-7.8013,-7.809,-7.8274,-7.8385,-7.8435,-7.8525,-7.8664,-7.8785,-7.8805,-7.8852,-7.8889,-7.8905,-7.8711,-7.8686,-7.8662,-7.8622,-7.89,-7.8901,-7.9101,-7.9102,-7.9104,-7.7072,-7.7139,-7.7263,-7.7406,-7.7512,-7.7495,-7.7607,-7.7696,-7.7832,-7.7929,-7.8041,-7.8205,-7.8339,-7.8417,-7.8551,-7.8631,-7.863,-7.8665,-7.8657,-7.8671,-7.8465,-7.8422,-7.8663,-7.8663,-7.8663,-7.8663,-7.8663,-7.8663,-7.6808,-7.6912,-7.7018,-7.7153,-7.7234,-7.7329,-7.7434,-7.7494,-7.7615,-7.776,-7.7777,-7.7931,-7.8034,-7.8211,-7.8279,-7.8399,-7.8366,-7.8414,-7.8425,-7.8436,-7.8442,-7.8143,-7.8424,-7.8423,-7.8423,-7.8422,-7.8422,0,-7.6623,-7.6644,-7.6766,-7.6898,-7.6999,-7.7104,-7.7206,-7.7272,-7.7327,-7.7425,-7.7569,-7.7658,-7.7832,-7.797,-7.8103,-7.8164,-7.8155,-7.816,-7.8192,-7.8184,-7.8159,-7.817,-7.783,-7.8151,-7.8148,-7.8147,-7.8146,-7.8145,-7.6356,-7.6475,-7.6603,-7.6684,-7.6749,-7.688,-7.6964,-7.7004,-7.7091,-7.7222,-7.7312,-7.7453,-7.7567,-7.7792,-7.786,-7.799,-7.7986,-7.8104,-7.8006,-7.7993,-7.7984,-7.7975,-7.7986,-7.8121,-7.8124,-7.8127,-7.8129,0,-7.6201,-7.6256,-7.6452,-7.6567,-7.66,-7.6723,-7.682,-7.6926,-7.6974,-7.7126,-7.7164,-7.7238,-7.7379,-7.7429,-7.7601,-7.7622,-7.782,-7.7815,-7.7783,-7.7784,-7.7892,-7.788,-7.8242,-7.829,-7.8006,-7.8008,-7.8011,0,-7.5992,-7.6149,-7.6221,-7.6332,-7.6506,-7.6542,-7.6713,-7.677,-7.6861,-7.6982,-7.6981,-7.7094,-7.7141,-7.7261,-7.7293,-7.7464,-7.7498,-7.7523,-7.7528,-7.7521,-7.7517,-7.7565,-7.755,-7.7542,-7.754,-7.7539,-7.7537,0,-7.5742,-7.5966,-7.6147,-7.6206,-7.6345,-7.6429,-7.6491,-7.6593,-7.6676,-7.6791,-7.6844,-7.6977,-7.7048,-7.715,-7.7189,-7.712,-7.7401,-7.7314,-7.7426,-7.7425,-7.7484,-7.7479,-7.779,-7.7535,-7.7534,-7.7534,-7.7533,0,-7.5581,-7.5699,-7.5955,-7.607,-7.6127,-7.6247,-7.6379,-7.6494,-7.6602,-7.663,-7.6721,-7.6726,-7.6883,-7.6792,-7.7007,-7.6905,-7.6975,-7.7015,-7.7024,-7.7038,-7.6934,-7.7098,-7.7393,-7.7424,-7.7054,-7.705,-7.7046,0,-7.5277,-7.5551,-7.5584,-7.5828,-7.596,-7.595,-7.6084,-7.618,-7.6229,-7.6348,-7.6401,-7.6537,-7.648,-7.6529,-7.663,-7.669,-7.6823,-7.6674,-7.684,-7.6845,-7.6807,-7.708,-7.7109,-7.7323,-7.6996,-7.7002,-7.7005,0,-7.5047,-7.5217,-7.5258,-7.5327,-7.5462,-7.5574,-7.5729,-7.5872,-7.5948,-7.6059,-7.6187,-7.6381,-7.6345,-7.6427,-7.6445,-7.6547,-7.6734,-7.6494,-7.6497,-7.6532,-7.6977,-7.7003,-7.7039,-7.6723,-7.6729,-7.6734,-7.6966,0,-7.4785,-7.4931,-7.5046,-7.52,-7.5295,-7.5452,-7.5506,-7.5598,-7.5606,-7.5654,-7.5846,-7.5939,-7.6084,-7.614,-7.6149,-7.6368,-7.6338,-7.6299,-7.6212,-7.6392,-7.6469,-7.6501,-7.6092,-7.609,-7.6088,-7.6086,0,0,-7.4478,-7.4688,-7.4721,-7.4874,-7.4955,-7.4943,-7.5104,-7.5183,-7.5342,-7.5397,-7.535,-7.5636,-7.5714,-7.5941,-7.6002,-7.6062,-7.6105,-7.604,-7.6307,-7.6331,-7.6354,-7.6435,-7.6468,-7.6083,-7.6082,-7.6082,-7.6081,0,-7.4393,-7.4476,-7.4637,-7.472,-7.4844,-7.4887,-7.4926,-7.5046,-7.5084,-7.5275,-7.526,-7.5381,-7.5611,-7.5694,-7.5766,-7.6015,-7.5996,-7.6056,-7.617,-7.6286,-7.6313,-7.6337,-7.6422,-7.6453,-7.6077,-7.6077,-7.6077,0,-7.4174,-7.4263,-7.4348,-7.4536,-7.4617,-7.4756,-7.4678,-7.4829,-7.4931,-7.4909,-7.5097,-7.5157,-7.5274,-7.5483,-7.5579,-7.5538,-7.5893,-7.5792,-7.5806,-7.5817,-7.5931,-7.5963,-7.5992,-7.5613,-7.5611,-7.561,0,0,-7.4092,-7.4229,-7.4337,-7.4522,-7.4574,-7.4642,-7.4721,-7.4737,-7.4844,-7.4886,-7.4962,-7.5065,-7.5198,-7.5285,-7.5413,-7.5636,-7.5661,-7.5733,-7.5755,-7.5773,-7.5793,-7.5912,-7.5944,-7.5603,-7.5603,-7.5602,0,0,-7.4053,-7.4186,-7.4175,-7.4397,-7.4499,-7.4616,-7.4726,-7.4716,-7.4837,-7.4824,-7.4858,-7.4887,-7.5084,-7.5143,-7.5044,-7.5382,-7.5295,-7.532,-7.5336,-7.5364,-7.5386,-7.5366,-7.4976,0,0,0,0,0,-7.3994,-7.4169,-7.4158,-7.4204,-7.4442,-7.4623,-7.4653,-7.4685,-7.4622,-7.4708,-7.4769,-7.4745,-7.5096,-7.5009,-7.5052,-7.5162,-7.5513,-7.5529,-7.5544,-7.5617,-7.5646,-7.5671,0,0,0,0,0,0,-7.4012,-7.4067,-7.4154,-7.4278,-7.4332,-7.4617,-7.4517,-7.453,-7.4614,-7.4606,-7.4734,-7.4749,-7.4779,-7.4988,-7.5027,-7.5131,-7.4963,-7.5519,-7.5533,-7.5545,-7.5627,-7.5651,-7.5671,0,0,0,0,0,-7.4026,-7.4071,-7.4446,-7.4276,-7.4323,-7.4408,-7.451,-7.4521,-7.4586,-7.4682,-7.4696,-7.4603,-7.4781,-7.4816,-7.5012,-7.5112,-7.4936,-7.495,-7.5528,-7.5539,-7.5548,-7.5639,0,0,0,0,0,0,-7.4037,-7.4082,-7.4456,-7.4471,-7.4212,-7.4392,-7.4421,-7.4513,-7.4657,-7.4673,-7.4551,-7.4544,-7.4785,-7.4811,-7.4838,-7.5104,-7.4914,-7.4929,-7.4938,-7.5536,-7.5544,-7.5552,0,0,0,0,0,0,-7.4058,-7.4095,-7.4464,-7.4382,-7.4388,-7.4378,-7.4404,-7.4575,-7.4658,-7.4518,-7.4516,-7.4546,-7.4744,-7.4809,-7.483,-7.5096,-7.4897,-7.4911,-7.4921,-7.4927,-7.5543,-7.5549,0,0,0,0,0,0,-7.4074,-7.4106,-7.4378,-7.4383,-7.4388,-7.4563,-7.4529,-7.4772,-7.4589,-7.4512,-7.4574,-7.4566,-7.4742,-7.4764,-7.4824,-7.5081,-7.5092,-7.4898,-7.4907,-7.4914,-7.4919,0,0,0,0,0,0,0,-7.4087,-7.3867,-7.4365,-7.4384,-7.4388,-7.4613,-7.4618,-7.4622,-7.4588,-7.4581,-7.4575,-7.4569,-7.4817,-7.4832,-7.4848,-7.5069,0,0,-7.4896,-7.4903,0,0,0,0,0,0,0,0,-7.3854,-7.3864,-7.4365,-7.4368,-7.4372,-7.4614,-7.4618,-7.4621,-7.4586,-7.4581,-7.4576,-7.4572,-7.4821,-7.4834,-7.4846,0,0,0,0,0,0,0,0,0,0,0,0,0,0,0,-7.4365,-7.4368,0,-7.4615,-7.4617,-7.462,-7.4586,-7.4582,-7.4578,-7.4574,-7.4825,-7.4835,-7.4845,0,0,0,0,0,0,0,0,0,0,0,0,0,0,0,0,0,0,0,0,0,0,0,0,0,0,0,0,0,0,0,0,0,0,0,0,0,0,0,0,0,0,0,0,0,0,0,0,0,0,0,0,0,0,0,0,0,0,0,0,0,0,0,0,0,0,0,0,0]}]]]